STARLINK-1893, 46786

Orbit data source: Space-Track

STARLINK-1893, 46786 is a payload satellite owned by SpaceX/Seattle (US) in LEO that was launched on Sat, 24 Oct 2020 UTC via an FALCON 9 launch vehicle from the Air Force Eastern Test Range (AFETR). Payload-class satellites include a variety of spacecraft equipped with specific instruments for various scientific and technological missions. These include communications satellites like Starlink; space stations such as the ISS; scientific satellites like the Hubble; Earth observation satellites from companies like Planet Labs, Umbra, and HawkEye 360; GPS; miniature CubeSats for education and research; and military/defense satellites.

Loading next visibility...
Identifier
46786, 2020-074AZ
Orbit
LEO
Country
Flag of USUS
Related business
Manufacturer
SpaceX/Seattle
Mission
Partially operational Commercial Communications
Bus & Motor
STARLINK, Unknown motor
Mass
260 kg wet, ~248 kg dry
Launch date (UTC)
2020-10-24 (5 years ago)
Launch vehicle
FALCON 9
Launch site
Air Force Eastern Test Range (AFETR)
Object type
Payload
Rocket body
Debris
Shape & HBR
Box + 1 Pan, 10.1 m
Radar Cross Section
13.562 m², Large (>1 m²)

Expand to show TLE details & history
Last TLE update: 19 hours ago

TLE from 19 hours ago
0 STARLINK-1893
1 46786U 20074AZ  26072.47868314  .00117248  00000-0  20623-2 0  9990
2 46786  53.0502 246.0383 0002362  33.0425 327.0730 15.49612050298075
Epoch: 2026-03-13T11:29Z
TLE epoch observation values (Epoch: 2026-03-13T11:29:18.223Z)
Latitude
-0.00001°
Longitude
-97.40127°
Altitude
417.408 km
Speed
7.663 km/s
True Right ascension
16h 24m 09s
True Declination
0° 00' 00"
Sunlit
Object was in daylight at epoch
Visualization orbit readout
Latitude
Unknown
Longitude
Unknown
Altitude
Unknown
Speed
Unknown
Apparent Right ascension
Unknown
Apparent Declination
Unknown
Sunlit
N/A
Visualization observer readout
Local Sidereal Time
10:47:32
Azimuth
Unknown
Elevation
Unknown
Doppler factor
Unknown
Orbital elements
Apogee altitude
419.742 km
Perigee altitude
416.531 km
Semi-major axis
6,796.274 km
Eccentricity
0.00024
Inclination
53.0502°
RAAN
246.0383°
Arg. of periapsis
33.0425°
True anomaly
327.05828°
Mean anomaly
327.073°
Eccentric anomaly
327.06564°
Mean motion
3.8738 °/min
Orbital period
92.93 mins
BSTAR
0.0020623
Loading maneuver chart data...
Computing Atmospheric mass density...

Documentation

Showing up to 5 results
|